Miscellaneous Local Product
Issued by NWS Hastings, NE

Home | Current Version | Previous Version | Text Only | Print | Product List | Glossary Off
Versions: 1 2 3 4 5 6 7 8 9 10 11 12 13 14 15 16 17 18 19 20 21 22 23 24 25 26 27 28 29 30 31 32 33 34 35 36 37 38 39 40 41 42 43 44 45 46 47 48 49 50

280
AXUS43 KGID 040502
MISGRI

GID CWA HOURLY WEATHER ROUNDUP
NATIONAL WEATHER SERVICE HASTINGS NE
1200 AM CDT WED MAY 04 2016

NOTE: "FAIR" INDICATES FEW OR NO CLOUDS BELOW 12,000 FEET WITH NO
SIGNIFICANT WEATHER AND/OR OBSTRUCTIONS TO VISIBILITY.

...SOUTH CENTRAL NEBRASKA...

CITY           SKY/WX    TMP DP  RH WIND       PRES   REMARKS
GRAND ISLAND   CLEAR     54  44  69 W10       29.96F
HASTINGS       CLEAR     52  43  71 W9        29.98F
KEARNEY        CLEAR     52  41  66 W8        30.01S
ORD            CLEAR     50  43  77 NW7       29.96F
YORK           CLEAR     52  46  82 W10       29.93F
AURORA         CLEAR     55  45  69 W12       29.95F
LEXINGTON      CLEAR     48  42  81 W7        30.04S
HOLDREGE       CLEAR     54  42  64 W6        30.02S
HEBRON         CLEAR     54  45  71 CALM      29.96S

...NEBRASKA PANHANDLE...

CITY           SKY/WX    TMP DP  RH WIND       PRES   REMARKS
CHADRON        CLEAR     47  42  83 SW3       30.13S
ALLIANCE       CLEAR     39  36  89 W7        30.14S WCI  34
SCOTTSBLUFF    CLEAR     50  41  71 N5        30.17R
SIDNEY         CLEAR     41  35  79 NW8       30.18R

...WESTERN AND NORTH CENTRAL NEBRASKA...

CITY           SKY/WX    TMP DP  RH WIND       PRES   REMARKS
VALENTINE      CLEAR     51  40  65 NW8       30.05R
AINSWORTH      CLEAR     54  42  63 NW7       30.03R
ONEILL         CLEAR     54  44  68 NW9       29.99R
BROKEN BOW     CLEAR     55  40  56 NW9       30.01F
IMPERIAL       CLEAR     49  38  65 W6        30.11S
NORTH PLATTE   CLEAR     45  39  79 NW6       30.07S
MCCOOK         CLEAR     46  39  76 W6        30.07R

...EASTERN NEBRASKA...

CITY           SKY/WX    TMP DP  RH WIND       PRES   REMARKS
NORFOLK        CLEAR     58  41  53 N12       29.92R
SO SIOUX CITY  CLEAR     56  37  49 N8        29.89R
TEKAMAH        CLEAR     60  45  57 NW20      29.86R
COLUMBUS       CLEAR     52  39  62 NW9       29.93R
ALBION         CLEAR     56  44  62 NW8       29.96R
OMAHA EPPLEY   PTCLDY    62  44  51 W10       29.84F
OFFUTT AFB     CLEAR     59  45  60 W8        29.84F
MILLARD        PTCLDY    61  45  55 W6        29.86S
LINCOLN        CLEAR     59  45  59 W6        29.91S
NEBRASKA CITY  CLEAR     56  43  59 W13       29.87F
BEATRICE       CLEAR     56  45  66 W9        29.92F
FALLS CITY     CLEAR     57  42  57 SW10      29.88F

...NORTHERN KANSAS...

CITY           SKY/WX    TMP DP  RH WIND       PRES   REMARKS
GOODLAND       CLEAR     45  37  73 W9        30.13S
HILL CITY      CLEAR     50  43  77 W6        30.05F
NORTON         CLEAR     48  39  71 SW7       30.04S
PHILLIPSBURG   CLEAR     48  45  87 CALM      30.03S
SMITH CENTER   CLEAR     48  43  81 W5        30.02S
BELOIT         CLEAR     50  45  81 W5        29.99S
HAYS           CLEAR     48  37  66 W7        30.05S
RUSSELL        CLEAR     50  44  80 W8        30.02S
CONCORDIA      CLEAR     54  42  64 W8        29.97F
SALINA         CLEAR     58  44  60 W7        30.00S
TOPEKA         CLEAR     52  48  86 CALM      29.93F



USA.gov is the U.S. government's official web portal to all federal, state and local government web resources and services.